Home   Weather   Fort Collins   Past weeks

Flag for USA Past Weather in Fort Collins, Colorado, USA — Yesterday and Last 2 Weeks

Now
34 °F

Sunny.


Feels Like: 28 °F
Forecast: 24 / 40 °F
Wind: 7 mph from North

Location: Fort Collins-Loveland Municipal Airport

Current Time: Jan 21, 2017 at 12:38:21 pm

Latest Report: Jan 21, 2017 at 11:55 am


Visibility: 10 mi

Pressure: 29.38 "Hg (24.30 "Hg at 1522m altitude)

Humidity: 81%

Dew Point: 28 °F

Location of Fort CollinsLocation

Past Weather in Fort Collins — Graph

°F

Fort Collins Temperature Yesterday

Maximum temperature yesterday: 46 °F (at 2:15 pm)
Minimum temperature yesterday: 27 °F (at 11:35 pm)
Average temperature yesterday: 36 °F

High & Low Weather Summary for the Past Weeks

 TemperatureHumidityPressure
High57 °F (Jan 9, 11:55 am)100% (Jan 6, 11:55 am)30.37 "Hg (Jan 6, 11:55 am)
Low-6 °F (Jan 7, 1:35 am)26% (Jan 19, 2:35 pm)29.36 "Hg (Jan 20, 1:15 pm)
Average30 °F68%29.91 "Hg
* Reported Jan 6 11:15 am — Jan 21 11:15 am, Fort Collins, Weather by CustomWeather, © 2017

Note: Actual official high and low records may vary slightly from our data, if they occured in-between our weather recording intervals... More about our weather records

Advertising

Fort Collins Weather History for the Previous 24 Hours

Scroll right to see more
 ConditionsComfort  
Time TempWeatherWind HumidityBarometerVisibility
11:15 am
Sat, Jan 21
30 °FSunny.3 mph80%29.40 "Hg10 mi
10:35 am30 °FSunny.No wind86%29.42 "Hg10 mi
9:55 am28 °FSunny.No wind86%29.41 "Hg10 mi
9:15 am28 °FSunny.6 mph80%29.40 "Hg10 mi
8:55 am27 °FSunny.8 mph74%29.39 "Hg10 mi
8:35 am25 °FSunny.8 mph80%29.38 "Hg10 mi
7:55 am21 °FSunny.7 mph86%29.37 "Hg10 mi
7:15 am18 °FClear.No wind86%29.37 "Hg10 mi
6:55 am21 °FClear.5 mph80%29.37 "Hg10 mi
6:35 am21 °FClear.No wind86%29.38 "Hg10 mi
5:55 am21 °FClear.5 mph86%29.37 "Hg10 mi
5:15 am23 °FClear.5 mph86%29.37 "Hg10 mi
4:55 am23 °FClear.No wind86%29.38 "Hg10 mi
4:15 am25 °FClear.5 mph80%29.37 "Hg10 mi
3:55 am25 °FClear.5 mph86%29.37 "Hg10 mi
3:15 am25 °FClear.5 mph86%29.38 "Hg10 mi
2:55 am25 °FClear.8 mph80%29.39 "Hg10 mi
2:15 am27 °FClear.6 mph80%29.40 "Hg10 mi
1:55 am25 °FClear.5 mph86%29.41 "Hg10 mi
1:35 am25 °FClear.3 mph86%29.42 "Hg10 mi
12:55 am27 °FClear.5 mph80%29.42 "Hg10 mi
12:15 am27 °FClear.6 mph80%29.43 "Hg10 mi
11:35 pm
Fri, Jan 20
27 °FClear.3 mph80%29.44 "Hg10 mi
10:55 pm28 °FClear.6 mph80%29.43 "Hg10 mi
10:35 pm28 °FClear.5 mph86%29.43 "Hg10 mi
9:55 pm30 °FClear.5 mph86%29.43 "Hg10 mi
9:15 pm30 °FClear.6 mph80%29.43 "Hg10 mi
8:35 pm30 °FClear.9 mph80%29.43 "Hg10 mi
7:55 pm34 °FClear.5 mph75%29.43 "Hg10 mi
7:35 pm30 °FClear.7 mph80%29.43 "Hg10 mi
6:55 pm32 °FClear.No wind80%29.42 "Hg10 mi
6:15 pm34 °FClear.8 mph70%29.41 "Hg10 mi
5:55 pm37 °FClear.3 mph65%29.40 "Hg10 mi
5:35 pm39 °FClear.8 mph65%29.40 "Hg10 mi
4:55 pm39 °FSunny.5 mph61%29.39 "Hg10 mi
4:15 pm45 °FSunny.8 mph53%29.37 "Hg10 mi
3:55 pm45 °FSunny.8 mph53%29.37 "Hg10 mi
3:15 pm46 °FSunny.7 mph50%29.36 "Hg10 mi
2:55 pm46 °FSunny.8 mph50%29.36 "Hg10 mi
2:15 pm46 °FSunny.5 mph46%29.36 "Hg10 mi
1:55 pm45 °FSunny.5 mph49%29.36 "Hg10 mi
1:15 pm45 °FSunny.8 mph49%29.36 "Hg10 mi
12:55 pm45 °FSunny.6 mph53%29.37 "Hg10 mi
12:15 pm45 °FSunny.6 mph53%29.39 "Hg10 mi
Weather by CustomWeather, © 2017

See weather overviewHow to use our weather pages